星链-11555 (STARLINK-11555)

导读

STARLINK-11555是美国SpaceX星链星座中的一颗卫星,于2025年2月8日发射升空,归属太空探索技术公司打造的低轨卫星互联网星座序列。它承担着为全球提供高速宽带互联网接入服务的任务,尤其能覆盖偏远地区,支撑全球无缝联网通信,助力星链实现全球卫星互联网组网布局。

基本信息
目录编号:
62915
目录名称:
STARLINK-11555
国际标识:
2025-027J
轨道中心:
EARTH
卫星名称:
星链-11555
卫星全名:
星链-11555 (STARLINK-11555)
卫星状态:
在轨 (已飞行574 天)
发射日期:
2025-02-08 UTC
国别 :
美国 (US)
星等 :
--
轨道信息
数据来源 国际轨道数据
星历时间: 2026-09-04T23:24:14+0800
16小时前
查看轨道信息
半长轴: 6734.605km
偏心率: 0.0002041
轨道倾角: 43.002°
近地点辐角 267.769°
升交点赤经 349.268°
平近点角 92.295°
近地点: 355.093km
远地点: 357.843km
周期: 91.670分钟
每日圈数: 15.708498
详细信息
固有亮度:
5
最大亮度:
2.5
卫星平台:
Starlink V1.0
覆盖范围:
全球
运营商:
太空探索技术公司
运营商所在国:
美国
制造商(研发单位):
太空探索技术公司
制造商所在国:
美国
使用方式:
暂无
卫星简介
Starlink 计划是 SpaceX 推出的全球卫星互联网项目,通过发射低轨道卫星,为全球尤其是偏远地区提供高速、低延迟的互联网服务。自 2019 年起,Starlink 已部署数千颗卫星,旨在缩小全球数字鸿沟,推动互联网普及。该项目还为军事、航空等行业提供通信支持,带来广泛经济效益。
2D轨道图
3D轨道图
轨道高度分析图
轨道倾角分析图
轨道综合分析图
查看轨道综合分析图
交会数据列表
事件ID 空间交会对象 最接近时刻(TCA) 交会距离 交会风险概率(CRP) 交会风险指数(CRI) 操作
CDM_260907-193306-291506-812821
2026-09-07T
19:33:41+0000
0.933 km
远距离
2.699888E-5 中风险 0.64